This is the latest recevied weather packets stored in our database for station/object TVARMINN. If no packets are shown the sender has not sent any weather packets the latest 10 day(s).
| Time | Temp. | Humidity | Pressure | Rain* | Wind** | Luminosity | Snow |
|---|---|---|---|---|---|---|---|
| 1777390008 | 7.22° C | 37% | 1020.5 hPa | 0 mm | - | - | - |
| 1777388808 | 7.78° C | 35% | 1020.4 hPa | 0 mm | - | - | - |
| 1777387608 | 7.78° C | 32% | 1020.4 hPa | 0 mm | - | - | - |
| 1777386408 | 7.78° C | 34% | 1020.4 hPa | 0 mm | - | - | - |
| 1777385207 | 7.22° C | 35% | 1020.3 hPa | 0 mm | - | - | - |
| 1777384008 | 7.22° C | 33% | 1020.2 hPa | 0 mm | - | - | - |
| 1777382807 | 7.78° C | 33% | 1020.1 hPa | 0 mm | - | - | - |
| 1777381607 | 7.22° C | 34% | 1020.1 hPa | 0 mm | - | - | - |
| 1777380407 | 7.78° C | 33% | 1020.1 hPa | 0 mm | - | - | - |
| 1777379207 | 7.22° C | 32% | 1020 hPa | 0 mm | - | - | - |
| 1777378007 | 7.78° C | 33% | 1020 hPa | 0 mm | - | - | - |
| 1777376807 | 7.22° C | 33% | 1020.1 hPa | 0 mm | - | - | - |
| 1777375607 | 6.67° C | 34% | 1020 hPa | 0 mm | - | - | - |
| 1777374407 | 6.67° C | 31% | 1019.9 hPa | 0 mm | - | - | - |
| 1777373207 | 6.67° C | 33% | 1019.8 hPa | 0 mm | - | - | - |
| 1777372007 | 6.11° C | 32% | 1019.9 hPa | 0 mm | - | - | - |
| 1777370807 | 6.11° C | 34% | 1019.9 hPa | 0 mm | - | - | - |
| 1777369606 | 6.11° C | 37% | 1020 hPa | 0 mm | - | - | - |
| 1777368406 | 5.56° C | 37% | 1020 hPa | 0 mm | - | - | - |
| 1777367207 | 6.11° C | 36% | 1020 hPa | 0 mm | - | - | - |
| 1777366006 | 5.56° C | 36% | 1019.9 hPa | 0 mm | - | - | - |
| 1777364806 | 5° C | 37% | 1019.8 hPa | 0 mm | - | - | - |
| 1777363607 | 5.56° C | 37% | 1019.7 hPa | 0 mm | - | - | - |
| 1777362406 | 6.11° C | 38% | 1019.5 hPa | 0 mm | - | - | - |
| 1777361206 | 5° C | 38% | 1019.4 hPa | 0 mm | - | - | - |
* Rain latest hour (hover to see other rain measurements)
** Current wind speed in m/s (hover to see current wind gust speed)